{"data":{"norad_id":63265,"epoch":"2026-09-21T08:36:54.458496Z","epoch_age_seconds":87983,"freshness":"FRESH","line1":"1 63265U 25053A   26264.35896364  .00129070  00000+0  99357-3 0  9995","line2":"2 63265  42.9979  12.7551 0000856 233.6964 126.3824 15.70846330 88444","mean_motion":15.7084633,"eccentricity":8.56e-5,"inclination_deg":42.9979,"raan_deg":12.7551,"arg_perigee_deg":233.6964,"mean_anomaly_deg":126.3824,"bstar":0.00099357,"rev_number":8844,"period_min":91.670329076683,"perigee_km":355.90048634887,"apogee_km":357.05345226041,"semimajor_km":6734.6139693046,"source":"CELESTRAK","updated_at":"2026-09-22T09:00:49.799009Z"}}